OSCAR 7 1 07530U 74089B 25348.32063488 -.00000025 00000-0 13119-3 0 9995 2 07530 101.9966 354.6050 0012375 123.6669 250.4635 12.53694194337353 OSCAR 11 (UOSAT 2) 1 14781U 84021B 25348.33780495 .00001989 00000-0 21111-3 0 9993 2 14781 97.7811 311.3415 0009289 77.7536 282.4721 14.90150197229597 OSCAR 19 (LUSAT) 1 20442U 90005G 25348.29062716 .00000220 00000-0 95330-4 0 9999 2 20442 98.8961 359.9004 0012106 33.0050 327.1887 14.34045367875896 EYESAT A 1 22825U 93061C 25348.18739127 .00000176 00000-0 84017-4 0 9996 2 22825 98.7145 50.4581 0007325 284.8658 75.1713 14.30877362680544 ITAMSAT 1 22826U 93061D 25348.15166056 .00000201 00000-0 92888-4 0 9993 2 22826 98.7094 50.3217 0007826 266.3769 93.6519 14.31298251680844 RADIO ROSTO 1 23439U 94085A 25348.28792306 .00000079 00000-0 34519-2 0 9996 2 23439 64.8156 242.2470 0149743 38.2148 322.9280 11.27583600275056 JAS 2 1 24278U 96046B 25348.25173106 -.00000029 00000-0 79703-5 0 9998 2 24278 98.5461 217.1843 0349214 216.0465 141.6667 13.53262922448159 TECHSAT 1B 1 25397U 98043D 25347.90094553 .00000146 00000-0 83392-4 0 9996 2 25397 98.9921 331.1398 0002026 55.4203 304.7166 14.24377408424954 ISS (ZARYA) 1 25544U 98067A 25348.21787239 .00012052 00000-0 22198-3 0 9996 2 25544 51.6305 135.1599 0003264 246.9077 113.1568 15.49586484543084 PCSAT 1 26931U 01043C 25348.27290776 .00000271 00000-0 13229-3 0 9991 2 26931 67.0515 2.5137 0007428 269.8496 90.1755 14.31855849263972 SAUDISAT 1C 1 27607U 02058C 25348.28963521 .00002628 00000-0 33096-3 0 9997 2 27607 64.5543 340.8085 0072296 296.3156 63.0536 14.82399197237049 CUTE-1 1 27844U 03031E 25348.27613775 .00000507 00000-0 23886-3 0 9994 2 27844 98.6765 354.1593 0009711 9.0596 351.0757 14.24180797165356 CUBESAT XI 4 1 27848U 03031J 25347.96224071 .00000433 00000-0 20957-3 0 9994 2 27848 98.6792 353.7104 0009935 27.4415 332.7286 14.23488271165029 MOZHAYETS 4 1 27939U 03042A 25348.35119626 .00001675 00000-0 26897-3 0 9998 2 27939 98.3368 162.5940 0012190 130.8588 347.4266 14.72977499188336 CUBESAT XI 5 1 28895U 05043F 25348.34508436 .00002428 00000-0 39530-3 0 9998 2 28895 98.2718 135.4498 0015342 73.5062 286.7829 14.71908884 74554 CUTE-1.7+APD 2 1 32785U 08021C 25348.23224500 .00007023 00000-0 47205-3 0 9999 2 32785 97.8077 321.3419 0007894 304.4990 55.5491 15.07067785957315 SEEDS 1 32791U 08021J 25347.95320282 .00018733 00000-0 74560-3 0 9992 2 32791 97.7441 333.1406 0001457 198.6890 161.4294 15.25310297958985 YUBELEINY 1 32953U 08025A 25348.32015266 .00000076 00000-0 47214-3 0 9998 2 32953 82.5018 110.4398 0018961 357.6202 2.4785 12.43172296796728 KKS-1 (KISEKI) 1 33499U 09002H 25348.29450956 .00002211 00000-0 28249-3 0 9995 2 33499 98.1174 262.9133 0008227 159.4158 200.7387 14.82441645908797 SWISSCUBE 1 35932U 09051B 25348.20814052 .00001810 00000-0 37094-3 0 9997 2 35932 98.4143 247.8147 0008073 70.5000 289.7072 14.61964143862129 BEESAT 1 35933U 09051C 25348.26265448 .00001585 00000-0 33093-3 0 9997 2 35933 98.4076 247.8790 0006558 82.1593 278.0352 14.61282680862177 ITUPSAT 1 1 35935U 09051E 25348.29908770 .00001446 00000-0 31115-3 0 9993 2 35935 98.4166 247.2934 0008730 90.8648 269.3552 14.60037692861752 XIWANG-1 (HOPE-1) 1 36122U 09072B 25348.26163128 -.00000340 00000-0 -77486-3 0 9997 2 36122 100.3774 300.2724 0007050 299.2804 60.7604 13.16431330768674 TISAT 1 1 36799U 10035E 25348.28799191 .00020653 00000-0 86618-3 0 9999 2 36799 98.0594 274.7913 0003472 131.6167 228.5366 15.23528242839472 JUGNU 1 37839U 11058B 25348.36731265 .00000544 00000-0 14433-3 0 9991 2 37839 19.9625 351.2147 0018553 194.5611 194.1919 14.13697650732846 SRMSAT 1 37841U 11058D 25348.35795935 .00000479 00000-0 11649-3 0 9990 2 37841 19.9714 98.1565 0011795 331.3293 63.8110 14.11512094731678 HORYU 2 1 38340U 12025D 25348.33958665 .00004943 00000-0 52486-3 0 9993 2 38340 98.1949 109.2133 0009293 69.6797 290.5417 14.89486974721194 STRAND 1 1 39090U 13009E 25348.06219329 .00000503 00000-0 18394-3 0 9994 2 39090 98.3822 167.9198 0009698 67.2922 292.9289 14.37006327670474 CUBEBUG 1 1 39153U 13018D 25348.30009377 .00005882 00000-0 53333-3 0 9998 2 39153 98.1415 135.4850 0012925 44.8243 315.4019 14.95680697683411 ZACUBE 1 39417U 13066B 25348.32710162 .00005124 00000-0 41909-3 0 9992 2 39417 97.8060 304.8748 0041948 141.9606 218.4592 14.99105726653013 TRITON 1 1 39427U 13066M 25348.33066314 .00004088 00000-0 50230-3 0 9992 2 39427 97.8313 257.4095 0093268 115.8819 245.2046 14.80503781646726 GOMX 1 1 39430U 13066Q 25348.33249398 .00003591 00000-0 55187-3 0 9995 2 39430 97.6594 195.3585 0129595 311.4596 47.5538 14.68596580642777 HUMSAT D 1 39433U 13066T 25347.99060878 .00101520 00000-0 13344-2 0 9992 2 39433 97.5015 349.6356 0008620 134.0785 226.1181 15.58111958657981 CUBEBUG 2 1 39440U 13066AA 25348.34875202 .00005436 00000-0 52503-3 0 9995 2 39440 97.8708 292.0182 0057916 280.4037 79.0657 14.91994712649412 FUNCUBE 1 1 39444U 13066AE 25347.85101564 .00010449 00000-0 70805-3 0 9992 2 39444 97.8061 311.1428 0040478 112.1902 248.3627 15.05982595651739 UWE-3 1 39446U 13066AG 25347.82535747 .00006468 00000-0 58083-3 0 9995 2 39446 97.8476 298.1761 0049542 215.5638 144.2278 14.95117524649867 UNISAT 6 1 40012U 14033C 25348.36156890 .00004187 00000-0 46703-3 0 9991 2 40012 97.7611 139.7809 0045473 318.6846 41.0933 14.86815727618684 DUCHIFAT 1 1 40021U 14033M 25348.07446960 .00039324 00000-0 95934-3 0 9990 2 40021 98.0791 20.0281 0007337 30.9328 329.2348 15.40748930627053 QB50P1 1 40025U 14033R 25347.94126424 .00011811 00000-0 64439-3 0 9996 2 40025 98.0969 341.6128 0010544 131.3717 228.8422 15.14485350624956 OBJECT G 1 40905U 15049G 25348.34064027 .00027373 00000-0 43210-3 0 9990 2 40905 97.4853 17.9058 0006972 162.7904 197.3587 15.53461546567636 LILACSAT 2 1 40908U 15049K 25348.29086903 .00017841 00000-0 38243-3 0 9993 2 40908 97.4919 13.7208 0007335 191.1761 168.9325 15.44783910567146 LQSAT 1 40958U 15057A 25348.28055971 .00000888 00000-0 13421-3 0 9991 2 40958 97.6608 345.9562 0017692 148.2572 211.9709 14.76452128548020 CHUBUSAT 2 1 41338U 16012B 25348.32876080 .00007922 00000-0 36970-3 0 9993 2 41338 30.9980 92.4236 0009141 353.9192 6.1337 15.18413579540275 CHUBUSAT 3 1 41339U 16012C 25348.32636265 .00008595 00000-0 42414-3 0 9990 2 41339 31.0049 97.9758 0009382 345.6520 14.3853 15.16516816540093 PRATHAM 1 41783U 16059A 25348.27000252 .00001196 00000-0 22086-3 0 9992 2 41783 97.8270 348.3667 0032870 87.6996 272.7972 14.66835603492407 ALSAT 1N 1 41789U 16059G 25348.26716169 .00002050 00000-0 35665-3 0 9995 2 41789 97.8026 354.9128 0027442 60.5819 299.8121 14.68876246492855